TimeEDT,TemperatureF,Dew PointF,Humidity,Sea Level PressureIn,VisibilityMPH,Wind Direction,Wind SpeedMPH,Gust SpeedMPH,PrecipitationIn,Events,Conditions,WindDirDegrees,DateUTC
12:15 AM,53.6,46.4,77,30.23,10.0,Calm,Calm,-,N/A,,Clear,0,2013-05-27 04:15:00
12:35 AM,51.8,46.4,82,30.23,10.0,Calm,Calm,-,N/A,,Clear,0,2013-05-27 04:35:00
12:55 AM,51.8,46.4,82,30.24,10.0,Calm,Calm,-,N/A,,Clear,0,2013-05-27 04:55:00
1:15 AM,51.8,46.4,82,30.24,10.0,Calm,Calm,-,N/A,,Clear,0,2013-05-27 05:15:00
1:35 AM,51.8,44.6,76,30.24,10.0,Calm,Calm,-,N/A,,Clear,0,2013-05-27 05:35:00
1:55 AM,50.0,44.6,82,30.24,10.0,Calm,Calm,-,N/A,,Clear,0,2013-05-27 05:55:00
2:15 AM,48.2,44.6,87,30.24,10.0,Calm,Calm,-,N/A,,Clear,0,2013-05-27 06:15:00
2:35 AM,48.2,44.6,87,30.24,10.0,Calm,Calm,-,N/A,,Clear,0,2013-05-27 06:35:00
2:55 AM,50.0,46.4,87,30.23,10.0,Calm,Calm,-,N/A,,Clear,0,2013-05-27 06:55:00
3:15 AM,48.2,44.6,87,30.23,10.0,Calm,Calm,-,N/A,,Clear,0,2013-05-27 07:15:00
3:35 AM,50.0,46.4,87,30.23,10.0,Calm,Calm,-,N/A,,Clear,0,2013-05-27 07:35:00
3:55 AM,50.0,44.6,82,30.23,10.0,Calm,Calm,-,N/A,,Clear,0,2013-05-27 07:55:00
4:15 AM,50.0,44.6,82,30.23,10.0,Calm,Calm,-,N/A,,Clear,0,2013-05-27 08:15:00
4:35 AM,48.2,44.6,87,30.23,10.0,Calm,Calm,-,N/A,,Clear,0,2013-05-27 08:35:00
4:55 AM,48.2,44.6,87,30.24,10.0,Calm,Calm,-,N/A,,Clear,0,2013-05-27 08:55:00
5:15 AM,48.2,44.6,87,30.24,10.0,Calm,Calm,-,N/A,,Clear,0,2013-05-27 09:15:00
5:35 AM,48.2,42.8,82,30.25,10.0,Calm,Calm,-,N/A,,Clear,0,2013-05-27 09:35:00
5:55 AM,48.2,44.6,87,30.25,10.0,Calm,Calm,-,N/A,,Clear,0,2013-05-27 09:55:00
6:15 AM,48.2,44.6,87,30.26,10.0,Calm,Calm,-,N/A,,Clear,0,2013-05-27 10:15:00
6:35 AM,48.2,44.6,87,30.27,10.0,Calm,Calm,-,N/A,,Clear,0,2013-05-27 10:35:00
6:55 AM,50.0,46.4,87,30.27,10.0,Calm,Calm,-,N/A,,Clear,0,2013-05-27 10:55:00
7:15 AM,53.6,48.2,82,30.28,10.0,Calm,Calm,-,N/A,,Clear,0,2013-05-27 11:15:00
7:35 AM,55.4,50.0,82,30.28,10.0,Calm,Calm,-,N/A,,Mostly Cloudy,0,2013-05-27 11:35:00
7:55 AM,59.0,50.0,72,30.28,10.0,Calm,Calm,-,N/A,,Mostly Cloudy,0,2013-05-27 11:55:00
8:15 AM,62.6,51.8,68,30.27,10.0,Calm,Calm,-,N/A,,Partly Cloudy,0,2013-05-27 12:15:00
8:35 AM,64.4,51.8,64,30.28,10.0,South,3.5,-,N/A,,Clear,180,2013-05-27 12:35:00
8:55 AM,66.2,51.8,60,30.28,10.0,Calm,Calm,-,N/A,,Clear,0,2013-05-27 12:55:00
9:15 AM,68.0,51.8,56,30.29,10.0,Calm,Calm,-,N/A,,Clear,0,2013-05-27 13:15:00
9:35 AM,71.6,51.8,50,30.29,10.0,Calm,Calm,-,N/A,,Clear,0,2013-05-27 13:35:00
9:55 AM,73.4,50.0,44,30.29,10.0,South,8.1,-,N/A,,Clear,190,2013-05-27 13:55:00
10:15 AM,73.4,48.2,41,30.28,10.0,SSW,6.9,-,N/A,,Clear,210,2013-05-27 14:15:00
10:35 AM,73.4,48.2,41,30.28,10.0,SSE,6.9,-,N/A,,Clear,150,2013-05-27 14:35:00
10:55 AM,75.2,44.6,34,30.28,10.0,SSE,6.9,-,N/A,,Clear,150,2013-05-27 14:55:00
11:15 AM,75.2,46.4,36,30.27,10.0,South,5.8,-,N/A,,Clear,180,2013-05-27 15:15:00
11:35 AM,77.0,44.6,32,30.27,10.0,SSW,9.2,-,N/A,,Clear,210,2013-05-27 15:35:00
11:55 AM,77.0,44.6,32,30.27,10.0,South,5.8,-,N/A,,Clear,180,2013-05-27 15:55:00
12:15 PM,77.0,44.6,32,30.27,10.0,SW,4.6,16.1,N/A,,Clear,220,2013-05-27 16:15:00
12:35 PM,78.8,44.6,30,30.27,10.0,SE,8.1,-,N/A,,Clear,140,2013-05-27 16:35:00
12:55 PM,77.0,44.6,32,30.26,10.0,ESE,5.8,-,N/A,,Mostly Cloudy,120,2013-05-27 16:55:00
1:15 PM,77.0,46.4,34,30.26,10.0,ESE,6.9,-,N/A,,Overcast,120,2013-05-27 17:15:00
1:35 PM,78.8,44.6,30,30.25,10.0,Calm,Calm,-,N/A,,Mostly Cloudy,0,2013-05-27 17:35:00
1:55 PM,80.6,46.4,30,30.24,10.0,South,5.8,-,N/A,,Partly Cloudy,180,2013-05-27 17:55:00
2:15 PM,80.6,46.4,30,30.24,10.0,Calm,Calm,-,N/A,,Clear,0,2013-05-27 18:15:00
2:35 PM,80.6,46.4,30,30.24,10.0,South,3.5,-,N/A,,Clear,180,2013-05-27 18:35:00
2:55 PM,78.8,46.4,32,30.23,10.0,SE,3.5,-,N/A,,Clear,130,2013-05-27 18:55:00
3:15 PM,80.6,48.2,32,30.23,10.0,SW,5.8,-,N/A,,Clear,230,2013-05-27 19:15:00
3:35 PM,80.6,46.4,30,30.22,10.0,Calm,Calm,-,N/A,,Clear,0,2013-05-27 19:35:00
3:55 PM,78.8,44.6,30,30.21,10.0,South,10.4,-,N/A,,Clear,170,2013-05-27 19:55:00
4:15 PM,80.6,46.4,30,30.20,10.0,South,9.2,-,N/A,,Clear,170,2013-05-27 20:15:00
4:35 PM,80.6,46.4,30,30.20,10.0,South,3.5,-,N/A,,Clear,170,2013-05-27 20:35:00
4:55 PM,80.6,48.2,32,30.19,10.0,SSE,4.6,-,N/A,,Clear,160,2013-05-27 20:55:00
5:15 PM,80.6,46.4,30,30.18,10.0,SE,8.1,-,N/A,,Clear,140,2013-05-27 21:15:00
5:35 PM,80.6,48.2,32,30.18,10.0,SSW,10.4,-,N/A,,Clear,210,2013-05-27 21:35:00
5:55 PM,80.6,48.2,32,30.18,10.0,SE,4.6,-,N/A,,Clear,140,2013-05-27 21:55:00
6:15 PM,80.6,48.2,32,30.18,10.0,South,6.9,-,N/A,,Clear,170,2013-05-27 22:15:00
6:35 PM,80.6,48.2,32,30.18,10.0,WSW,4.6,-,N/A,,Clear,240,2013-05-27 22:35:00
6:55 PM,78.8,50.0,36,30.18,10.0,SSW,6.9,-,N/A,,Clear,200,2013-05-27 22:55:00
7:15 PM,78.8,50.0,36,30.19,10.0,South,5.8,-,N/A,,Clear,170,2013-05-27 23:15:00
7:35 PM,78.8,51.8,39,30.19,10.0,South,4.6,-,N/A,,Clear,170,2013-05-27 23:35:00
7:55 PM,77.0,51.8,41,30.19,10.0,South,5.8,-,N/A,,Clear,180,2013-05-27 23:55:00
8:15 PM,75.2,53.6,47,30.19,10.0,Calm,Calm,-,N/A,,Clear,0,2013-05-28 00:15:00
8:35 PM,73.4,53.6,50,30.20,10.0,Calm,Calm,-,N/A,,Clear,0,2013-05-28 00:35:00
8:55 PM,73.4,53.6,50,30.19,10.0,Calm,Calm,-,N/A,,Clear,0,2013-05-28 00:55:00
9:15 PM,71.6,53.6,53,30.19,10.0,South,3.5,-,N/A,,Clear,180,2013-05-28 01:15:00
9:35 PM,71.6,53.6,53,30.19,10.0,South,5.8,-,N/A,,Clear,170,2013-05-28 01:35:00
9:55 PM,71.6,55.4,57,30.19,10.0,South,6.9,-,N/A,,Clear,180,2013-05-28 01:55:00
10:15 PM,71.6,57.2,60,30.19,10.0,South,10.4,-,N/A,,Clear,190,2013-05-28 02:15:00
10:35 PM,71.6,57.2,60,30.20,10.0,SSW,10.4,19.6,N/A,,Clear,200,2013-05-28 02:35:00
10:55 PM,71.6,57.2,60,30.21,10.0,SSW,9.2,16.1,N/A,,Clear,200,2013-05-28 02:55:00
11:15 PM,69.8,57.2,64,30.22,10.0,South,9.2,-,N/A,,Clear,190,2013-05-28 03:15:00
11:35 PM,69.8,57.2,64,30.22,10.0,South,8.1,-,N/A,,Clear,190,2013-05-28 03:35:00
11:55 PM,68.0,57.2,68,30.22,10.0,South,6.9,-,N/A,,Clear,180,2013-05-28 03:55:00